Regional Weather Roundup
Issued by NWS

Home | Current Version | Previous Version | Text Only | Print | Product List | Glossary Off
Versions: 1 2 3 4 5 6 7 8 9 10 11 12 13 14 15 16 17 18 19 20 21 22 23 24 25 26 27 28 29 30 31 32 33 34 35 36 37 38 39 40 41 42 43 44 45 46 47 48 49 50

000
ASUS43 KTOP 051359
RWRKS

WEATHER ROUNDUP FOR KANSAS
NATIONAL WEATHER SERVICE GOODLAND KS
900 AM CDT SUN JUL 05 2015

NOTE:  "FAIR" INDICATES FEW OR NO CLOUDS BELOW 12,000 FEET WITH NO
SIGNIFICANT WEATHER AND/OR OBSTRUCTIONS TO VISIBILITY.

KSZ001>006-013>018-027>032-041>047-051500-
NORTHWEST KANSAS

CITY           SKY/WX    TMP DP  RH WIND       PRES   REMARKS
GOODLAND       SUNNY     74  62  66 SW9       29.89S
HAYS           MOSUNNY   79  63  57 S14G20    29.88R
HILL CITY      SUNNY     83  65  54 S8G17     29.84R
RUSSELL        MOSUNNY   77  67  71 S20       29.86R
$$

KSZ061>065-074>080-084>089-051500-
SOUTHWEST KANSAS

CITY           SKY/WX    TMP DP  RH WIND       PRES   REMARKS
DODGE CITY     MOSUNNY   79  63  57 S18       29.92F
ELKHART          N/A     79  58  48 S12         N/A
GARDEN CITY    SUNNY     78  64  61 S20       29.90S
GREAT BEND     MOSUNNY   77  66  69 S16       29.90R
LIBERAL        SUNNY     79  64  61 S16       29.96S
$$

KSZ066>073-081>083-090>101-051500-
SOUTHEAST KANSAS

CITY           SKY/WX    TMP DP  RH WIND       PRES   REMARKS
CHANUTE        MOSUNNY   79  71  76 S12       30.00S
COFFEYVILLE    MOSUNNY   76  70  82 S10       30.00R
HUTCHINSON     MOSUNNY   79  69  71 S12       29.93R
MEDICINE LODGE   N/A     79  69  71 S13       29.92S
NEWTON         CLOUDY    79  66  65 S14       29.97R
PARSONS        MOSUNNY   77  71  82 S10       30.02R
WICHITA INTL   PTSUNNY   78  70  76 S14       29.94S
WICHITA JABRA  CLOUDY    78  70  76 S13       29.95R
WICHITA MCCONL PTSUNNY   79  70  73 SE12      29.95S
WINFIELD       PTSUNNY   77  70  79 S15       29.98R
$$

KSZ007>012-019>026-033>040-048>060-102>105-051500-
NORTHEAST KANSAS

CITY           SKY/WX    TMP DP  RH WIND       PRES   REMARKS
CONCORDIA      MOSUNNY   78  70  76 S14       29.90R
EMPORIA        MOSUNNY   78  70  76 S16G23    29.98R
LAWRENCE       MOSUNNY   76  70  82 SE5       29.99R
MANHATTAN      MOSUNNY   78  70  76 SE6       29.92S
OLATHE IND     MOSUNNY   76  70  82 S8        30.01R
OLATHE EXE     MOSUNNY   75  71  87 S8        30.01R
SALINA         PTSUNNY   83  68  60 S17G24    29.90R
TOPEKA BILLARD SUNNY     77  70  79 SE8       29.97S
TOPEKA FORBES  SUNNY     78  69  73 SE13      29.97S
$$


USA.gov is the U.S. government's official web portal to all federal, state and local government web resources and services.